Cut Bank, MT

10:57 PM MDT on July 20, 2017 (GMT -0600)
Cut Bank Municipal

Weather History for KCTB - November, 2012

Change the Weather History Date:

Friday, November 2, 2012

  Actual Average Record
Temperature  
Mean Temperature 43 °F 36 °F  
Max Temperature 56 °F 47 °F 72 °F (1981)
Min Temperature 29 °F 25 °F -27 °F (1935)
Degree Days  
Heating Degree Days 22 29  
Month to date heating degree days 42 58  
Since 1 July heating degree days 1213 1282  
Cooling Degree Days 0 0  
Month to date cooling degree days 0 0  
Year to date cooling degree days 210 162  
Moisture  
Dew Point 32 °F    
Average Humidity 78    
Maximum Humidity 100    
Minimum Humidity 56    
Precipitation  
Precipitation 0.00 in 0.01 in 0.27 in (1944)
Month to date precipitation 0.00 0.02  
Year to date precipitation 8.25 10.34  
Snow  
Snow 0.00 in - - ()
Snow Depth 0.00 in    
Sea Level Pressure  
Sea Level Pressure 30.07 in    
Wind  
Wind Speed 5 mph (North)    
Max Wind Speed 18 mph    
Max Gust Speed 28 mph    
Visibility 8 miles    
Events Fog    
T = Trace of Precipitation, MM = Missing Value Source: NWS Daily Summary

Daily Weather History Graph

Daily Weather History Graph

Search for Another Location

Airport or City:

Trip Planner

Search our weather history database for the weather conditions in past years. The results will help you decide how hot, cold, wet, or windy it might be!

Date:

Astronomy

Nov. 02, 2012 Rise Set
Actual Time 8:18 AM MDT 6:07 PM MDT
Civil Twilight 7:45 AM MDT 6:40 PM MDT
Nautical Twilight 7:08 AM MDT 7:17 PM MDT
Astronomical Twilight 6:31 AM MDT 7:53 PM MDT
Moon 8:47 PM MDT (11/2) 11:52 AM MDT (11/2)
Length of Visible Light 10h 54m
Length of Day
9h 48m
Waning Gibbous, 87% of the Moon is Illuminated
Nov 2
Waning Gibbous
Nov 6
Last Quarter
Nov 13
New
Nov 20
First Quarter
Nov 28
Full

Hourly Weather History & Observations

Time (MDT) Temp. Windchill Dew Point Humidity Pressure Visibility Wind Dir Wind Speed Gust Speed Precip Events Conditions
12:56 AM 39.9 °F 35.1 °F 33.1 °F 77% 29.89 in 10.0 mi North 6.9 mph - N/A   Overcast
1:56 AM 36.0 °F 31.1 °F 32.0 °F 86% 29.93 in 10.0 mi NNW 5.8 mph - N/A   Overcast
2:56 AM 37.0 °F - 33.1 °F 86% 29.94 in 10.0 mi Calm Calm - N/A   Overcast
3:56 AM 37.0 °F 31.0 °F 34.0 °F 89% 29.97 in 10.0 mi North 8.1 mph - N/A   Overcast
4:56 AM 37.0 °F - 34.0 °F 89% 30.00 in 10.0 mi Calm Calm - N/A   Overcast
5:56 AM 36.0 °F - 34.0 °F 93% 30.02 in 10.0 mi Calm Calm - N/A   Scattered Clouds
6:56 AM 32.0 °F 25.6 °F 30.9 °F 96% 30.05 in 10.0 mi NW 6.9 mph - N/A   Overcast
7:56 AM 30.9 °F - 30.0 °F 96% 30.06 in 8.0 mi North - - N/A   Partly Cloudy
8:40 AM 30.2 °F - 30.2 °F 100% 30.02 in 1.8 mi Calm Calm - N/A   Partly Cloudy
8:50 AM 32.0 °F - 30.2 °F 93% 30.02 in 3.0 mi Calm Calm - N/A   Mostly Cloudy
8:56 AM 32.0 °F 28.7 °F 32.0 °F 100% 30.08 in 6.0 mi WSW 3.5 mph - N/A   Mostly Cloudy
9:56 AM 34.0 °F - 33.1 °F 96% 30.09 in 8.0 mi Calm Calm - N/A   Mostly Cloudy
10:56 AM 37.9 °F 33.5 °F 36.0 °F 93% 30.12 in 10.0 mi ESE 5.8 mph - N/A   Partly Cloudy
11:56 AM 42.1 °F 39.2 °F 36.0 °F 79% 30.11 in 10.0 mi SE 4.6 mph - N/A   Partly Cloudy
12:56 PM 50.0 °F - 36.0 °F 59% 30.07 in 10.0 mi Variable 3.5 mph - N/A   Partly Cloudy
1:20 PM 55.4 °F - 32.0 °F 41% 30.04 in 10.0 mi WSW 15.0 mph - N/A   Mostly Cloudy
1:49 PM 48.2 °F - 35.6 °F 62% 30.04 in 10.0 mi North 8.1 mph 23.0 mph N/A   Overcast
1:56 PM 48.9 °F - 36.0 °F 61% 30.07 in 10.0 mi North 5.8 mph - N/A   Overcast
2:56 PM 43.0 °F 37.7 °F 36.0 °F 76% 30.09 in 10.0 mi NNE 9.2 mph - N/A   Overcast
3:56 PM 39.9 °F 35.8 °F 35.1 °F 83% 30.11 in 10.0 mi NE 5.8 mph - N/A   Partly Cloudy
4:56 PM 43.0 °F 39.5 °F 35.1 °F 74% 30.11 in 10.0 mi ENE 5.8 mph - N/A   Overcast
5:56 PM 36.0 °F 29.6 °F 32.0 °F 86% 30.14 in 10.0 mi NNE 8.1 mph - N/A   Clear
6:56 PM 32.0 °F 24.8 °F 30.9 °F 96% 30.17 in 9.0 mi North 8.1 mph - N/A   Clear
7:21 PM 30.2 °F 24.3 °F 30.2 °F 100% 30.08 in 2.0 mi North 5.8 mph - N/A   Partly Cloudy
7:23 PM 30.2 °F 24.3 °F 30.2 °F 100% 30.08 in 1.0 mi North 5.8 mph - N/A   Mist
7:28 PM 30.2 °F 25.4 °F 30.2 °F 100% 30.08 in 0.2 mi NNE 4.6 mph - N/A Fog Light Freezing Fog
7:46 PM 30.2 °F 26.7 °F 30.2 °F 100% 30.08 in 1.5 mi NW 3.5 mph - N/A   Scattered Clouds
7:48 PM 30.2 °F 25.4 °F 30.2 °F 100% 30.08 in 4.0 mi WNW 4.6 mph - N/A   Scattered Clouds
7:56 PM 30.0 °F 24.1 °F 30.0 °F 100% 30.18 in 10.0 mi West 5.8 mph - N/A   Partly Cloudy
8:56 PM 30.0 °F 26.5 °F 30.0 °F 100% 30.18 in 10.0 mi WSW 3.5 mph - N/A   Mostly Cloudy
9:56 PM 30.9 °F - 30.0 °F 96% 30.17 in 10.0 mi Calm Calm - N/A   Overcast
10:56 PM 30.9 °F 27.5 °F 28.9 °F 92% 30.16 in 10.0 mi SE 3.5 mph - N/A   Overcast
11:56 PM 30.9 °F 26.2 °F 30.0 °F 96% 30.14 in 10.0 mi SSE 4.6 mph - N/A   Overcast